Showing default

GAOFEN 2, 40118

Orbit data source: Space-Track

GAOFEN 2, 40118 is a payload satellite owned by GGKGJ (CN) in SSO that was launched on Tue, 19 Aug 2014 UTC via a CHANG ZHENG 4B launch vehicle from the Taiyaun Space Center, China (TSC). Payload-class satellites include a variety of spacecraft equipped with specific instruments for various scientific and technological missions. These include communications satellites like Starlink; space stations such as the ISS; scientific satellites like the Hubble; Earth observation satellites from companies like Planet Labs, Umbra, and HawkEye 360; GPS; miniature CubeSats for education and research; and military/defense satellites.

Loading next visibility...
Identifier
40118, 2014-049A
Orbit
SSO
Country
Flag of CNCN / PRC
Related business
Manufacturer
DFH
Mission
Operational Civil Imaging
Bus & Motor
LS-3000A, AOCS
Mass
2,100 kg wet, 2,100 kg dry
Launch date (UTC)
2014-08-19 (11 years ago)
Launch vehicle
CHANG ZHENG 4B
Launch site
Taiyaun Space Center, China (TSC)
Object type
Payload
Rocket body
Debris
Shape & HBR
Box + 2 Pan, 2.0 m
Radar Cross Section
4.991 m², Large (>1 m²)

Expand to show TLE details & history
Last TLE update: 6 hours ago

TLE from 6 hours ago
0 GAOFEN 2
1 40118U 14049A   25261.04088465  .00000685  00000-0  96994-4 0  9993
2 40118  98.0512 320.0150 0007584  57.1935 303.0006 14.80298292598960
Epoch: 2025-09-18T00:58Z
TLE epoch observation values (Epoch: 2025-09-18T00:58:52.433Z)
Latitude
-0.00006°
Longitude
-51.91165°
Altitude
628.508 km
Speed
7.546 km/s
True Right ascension
21h 20m 03s
True Declination
0° 00' 00"
Sunlit
Object was in full shadow at epoch
Visualization orbit readout
Latitude
Unknown
Longitude
Unknown
Altitude
Unknown
Speed
Unknown
Apparent Right ascension
Unknown
Apparent Declination
Unknown
Sunlit
N/A
Visualization observer readout
Local Sidereal Time
00:10:41
Azimuth
Unknown
Elevation
Unknown
Doppler factor
Unknown
Orbital elements
Apogee altitude
630.742 km
Perigee altitude
620.119 km
Semi-major axis
7,003.567 km
Eccentricity
0.00076
Inclination
98.0512°
RAAN
320.015°
Arg. of periapsis
57.1935°
True anomaly
302.92768°
Mean anomaly
303.0006°
Eccentric anomaly
302.96414°
Mean motion
3.70309 °/min
Orbital period
97.22 mins
BSTAR
0.000096994
Loading maneuver chart data...
Computing Atmospheric mass density...
Loading historical data...
Loading historical data...
Loading historical data...
Loading historical data...
Loading historical data...
Loading historical data...
Loading historical data...
Other satellites on launch #49 in the year 2014 (2014-08-19 UTC)

Documentation

Showing up to 5 results
|